period_start,C,m1,H,J0,J1,J2,J3,J4,J5,JA,JB,JC,JD,JJ,JK,JN,#
2017-07-29 00:00:03,0.01,0.72,0.00,21.83,25.87,28.86,14.01,46.38,1016.62,2038.99,3218.03,2896.48,3315.14,600.17,598.51,48.06,0000 0000 0000 0000 000000
2017-07-29 00:05:05,0.01,0.72,0.00,21.83,25.87,28.86,14.01,46.43,1016.62,2038.99,3218.02,2896.23,3315.06,599.98,598.35,48.11,0000 0000 0000 0000 000000
2017-07-29 00:10:05,0.00,0.72,0.00,21.84,25.88,28.88,14.01,46.64,1016.62,2038.99,3218.00,2896.09,3315.01,599.84,598.17,48.16,0000 0000 0000 0000 000000
2017-07-29 00:15:07,0.00,0.72,0.00,21.85,25.90,28.88,14.02,46.57,1016.62,2038.98,3217.99,2896.01,3315.00,600.01,598.36,48.21,0000 0000 0000 0000 000000
2017-07-29 00:20:08,0.00,0.72,0.00,21.87,25.90,28.91,13.94,46.52,1016.62,2038.97,3217.97,2896.00,3315.00,599.86,598.14,48.26,0000 0000 0000 0000 000000
2017-07-29 00:25:09,0.00,0.72,0.00,21.89,25.91,28.91,14.04,46.44,1016.62,2038.98,3217.87,2896.00,3314.99,600.10,598.42,48.31,0000 0000 0000 0000 000000
2017-07-29 00:30:10,0.01,0.72,0.00,21.91,25.92,28.91,14.01,46.38,1016.62,2038.98,3217.44,2896.00,3314.95,600.05,598.23,48.36,0000 0000 0000 0000 000000
2017-07-29 00:35:12,0.00,0.72,0.00,21.92,25.92,28.93,14.05,46.34,1016.62,2038.96,3217.12,2895.99,3314.77,600.33,598.43,48.41,0000 0000 0000 0000 000000
2017-07-29 00:40:13,0.01,0.72,0.00,21.93,25.94,28.95,13.99,46.43,1016.62,2038.93,3217.01,2895.99,3314.21,600.01,598.33,48.46,0000 0000 0000 0000 000000
2017-07-29 00:45:14,0.01,0.72,0.00,21.95,25.95,28.96,14.05,46.42,1016.62,2038.87,3216.99,2895.66,3314.04,600.14,598.23,48.51,0000 0000 0000 0000 000000
2017-07-29 00:50:15,-0.02,0.72,0.00,21.97,25.96,28.96,13.97,46.31,1016.62,2038.52,3216.97,2895.13,3313.99,600.97,599.05,48.56,0000 0000 0000 0000 000000
2017-07-29 00:55:16,0.01,0.72,0.00,21.99,25.97,28.98,14.02,46.40,1016.62,2038.46,3216.66,2895.03,3313.98,599.95,598.01,48.61,0000 0000 0000 0000 000000
2017-07-29 01:00:18,-0.03,0.72,0.00,22.01,25.98,29.01,13.97,46.59,1016.62,2038.18,3216.16,2895.00,3313.74,600.06,598.14,48.66,0000 0000 0000 0000 000000
2017-07-29 01:05:19,0.01,0.72,0.00,22.02,26.00,29.00,13.98,46.50,1016.62,2038.07,3216.00,2895.00,3313.15,599.66,597.68,48.71,0000 0000 0000 0000 000000
2017-07-29 01:10:20,-0.00,0.72,0.00,22.03,26.00,29.02,13.91,46.40,1016.62,2038.01,3216.00,2894.97,3313.01,599.83,597.83,48.76,0000 0000 0000 0000 000000
2017-07-29 01:15:21,0.01,0.72,0.00,22.05,26.02,29.04,13.97,46.24,1016.62,2038.04,3215.89,2894.89,3313.00,600.09,598.10,48.81,0000 0000 0000 0000 000000
2017-07-29 01:20:23,0.01,0.72,0.00,22.07,26.03,29.03,14.06,46.38,1016.62,2038.03,3215.40,2894.46,3312.99,600.04,597.93,48.87,0000 0000 0000 0000 000000
2017-07-29 01:25:24,0.01,0.73,0.00,22.10,26.05,29.06,13.97,46.32,1016.62,2038.02,3215.19,2894.15,3312.96,600.13,597.98,48.92,0000 0000 0000 0000 000000
2017-07-29 01:30:25,0.01,0.73,0.00,22.12,26.06,29.06,14.01,46.31,1016.60,2038.01,3215.06,2894.04,3312.78,600.39,598.19,48.97,0000 0000 0000 0000 000000
2017-07-29 01:35:27,0.01,0.73,0.00,22.14,26.08,29.08,14.00,46.35,1016.56,2038.00,3215.01,2894.00,3312.17,599.93,597.63,49.02,0000 0000 0000 0000 000000
2017-07-29 01:40:28,0.00,0.73,0.00,22.17,26.10,29.08,14.09,46.37,1016.50,2038.00,3215.00,2894.00,3312.00,600.30,597.84,49.07,0000 0000 0000 0000 000000
2017-07-29 01:45:29,0.02,0.73,0.00,22.20,26.12,29.11,14.00,46.37,1016.53,2038.00,3214.80,2893.79,3311.83,599.86,597.47,49.12,0000 0000 0000 0000 000000
2017-07-29 01:50:31,0.04,0.73,0.00,22.23,26.13,29.12,13.91,46.38,1016.51,2037.99,3214.05,2893.03,3311.06,599.74,597.23,49.17,0000 0000 0000 0000 000000
2017-07-29 01:55:32,-0.00,0.73,0.00,22.25,26.15,29.14,14.03,46.33,1016.57,2037.98,3213.99,2893.00,3311.00,600.51,598.05,49.22,0000 0000 0000 0000 000000
2017-07-29 02:00:33,-0.00,0.73,0.00,22.28,26.17,29.15,14.04,46.37,1016.55,2037.94,3213.98,2893.00,3310.98,600.34,597.77,49.27,0000 0000 0000 0000 000000
2017-07-29 02:05:35,-0.00,0.73,0.00,22.30,26.20,29.16,13.92,46.19,1016.56,2037.81,3213.76,2892.94,3310.75,600.30,597.66,49.32,0000 0000 0000 0000 000000
2017-07-29 02:10:36,-0.01,0.73,0.00,22.33,26.21,29.18,13.93,46.31,1016.60,2037.33,3213.13,2892.27,3310.06,599.87,597.27,49.37,0000 0000 0000 0000 000000
2017-07-29 02:15:37,-0.01,0.73,0.00,22.36,26.24,29.20,14.00,46.25,1016.61,2037.08,3213.00,2892.03,3310.00,600.18,597.38,49.42,0000 0000 0000 0000 000000
2017-07-29 02:20:39,-0.00,0.73,0.00,22.38,26.26,29.21,13.89,46.25,1016.57,2037.04,3212.98,2892.00,3310.00,599.53,596.83,49.47,0000 0000 0000 0000 000000
2017-07-29 02:25:40,0.01,0.73,0.00,22.40,26.28,29.24,13.98,46.18,1016.56,2037.02,3212.84,2891.98,3309.82,599.94,597.10,49.52,0000 0000 0000 0000 000000
2017-07-29 02:30:41,0.02,0.73,0.00,22.43,26.31,29.26,14.03,46.23,1016.46,2037.00,3212.20,2891.90,3309.21,600.09,597.19,49.57,0000 0000 0000 0000 000000
2017-07-29 02:35:42,0.02,0.73,0.00,22.47,26.33,29.27,14.00,46.25,1016.47,2037.00,3212.01,2891.39,3309.00,600.14,597.25,49.62,0000 0000 0000 0000 000000
2017-07-29 02:40:44,0.00,0.73,0.00,22.49,26.36,29.31,14.00,46.24,1016.51,2037.00,3211.98,2891.01,3308.99,600.26,597.26,49.67,0000 0000 0000 0000 000000
2017-07-29 02:45:45,0.00,0.73,0.00,22.52,26.38,29.33,13.94,46.23,1016.41,2036.98,3211.92,2891.00,3308.94,599.95,596.97,49.72,0000 0000 0000 0000 000000
2017-07-29 02:50:46,0.02,0.73,0.00,22.54,26.41,29.35,13.89,46.27,1016.25,2036.96,3211.51,2890.99,3308.39,599.77,596.47,49.77,0000 0000 0000 0000 000000
2017-07-29 02:55:47,-0.00,0.73,0.00,22.56,26.43,29.40,13.93,46.28,1016.23,2036.82,3211.04,2890.90,3308.01,599.40,596.22,49.82,0000 0000 0000 0000 000000
2017-07-29 03:00:49,-0.03,0.73,0.00,22.60,26.46,29.43,14.00,46.32,1016.24,2036.56,3211.00,2890.44,3307.99,600.12,596.78,49.88,0000 0000 0000 0000 000000
2017-07-29 03:05:50,-0.01,0.73,0.00,22.62,26.48,29.45,13.93,46.22,1016.34,2036.09,3210.96,2890.03,3307.84,599.95,596.66,49.93,0000 0000 0000 0000 000000
2017-07-29 03:10:52,0.01,0.73,0.00,22.65,26.51,29.50,14.01,46.24,1016.27,2036.03,3210.48,2890.00,3307.35,600.69,597.35,49.98,0000 0000 0000 0000 000000
2017-07-29 03:15:53,0.00,0.73,0.00,22.68,26.53,29.50,13.95,46.13,1016.22,2036.00,3210.03,2889.99,3307.02,600.14,596.65,50.03,0000 0000 0000 0000 000000
2017-07-29 03:20:54,0.03,0.73,0.00,22.71,26.56,29.52,13.95,46.23,1016.19,2036.00,3210.00,2889.56,3306.65,600.36,596.71,50.08,0000 0000 0000 0000 000000
2017-07-29 03:25:55,0.01,0.73,0.00,22.74,26.58,29.55,13.95,46.28,1016.17,2035.99,3209.94,2889.07,3306.04,599.85,596.19,50.13,0000 0000 0000 0000 000000
2017-07-29 03:30:56,0.01,0.73,0.00,22.78,26.61,29.56,14.02,46.41,1016.17,2035.98,3209.66,2889.00,3306.00,600.08,596.29,50.18,0000 0000 0000 0000 000000
2017-07-29 03:35:58,-0.00,0.73,0.00,22.81,26.63,29.58,14.00,46.38,1016.16,2035.88,3209.07,2889.00,3305.84,600.25,596.37,50.23,0000 0000 0000 0000 000000
2017-07-29 03:40:59,-0.03,0.73,0.00,22.82,26.66,29.63,13.97,46.23,1016.16,2035.39,3208.99,2888.81,3305.10,600.00,596.08,50.28,0000 0000 0000 0000 000000
2017-07-29 03:46:00,-0.00,0.73,0.00,22.86,26.69,29.65,13.95,46.33,1016.14,2035.04,3208.80,2888.15,3305.00,600.32,596.32,50.33,0000 0000 0000 0000 000000
2017-07-29 03:51:02,0.00,0.73,0.00,22.88,26.72,29.67,13.99,46.35,1016.14,2035.01,3208.20,2888.01,3304.95,600.02,596.10,50.38,0000 0000 0000 0000 000000
2017-07-29 03:56:03,0.01,0.73,0.00,22.90,26.74,29.72,13.95,46.33,1016.16,2035.00,3207.99,2887.98,3304.30,600.03,595.94,50.43,0000 0000 0000 0000 000000
2017-07-29 04:01:04,0.01,0.73,0.00,22.92,26.77,29.73,13.94,46.37,1016.18,2035.00,3207.86,2887.77,3304.00,600.13,596.09,50.48,0000 0000 0000 0000 000000
2017-07-29 04:06:05,0.02,0.73,0.00,22.94,26.80,29.75,13.95,46.30,1016.17,2034.99,3207.56,2887.25,3304.00,600.20,595.99,50.53,0000 0000 0000 0000 000000
2017-07-29 04:11:07,0.02,0.74,0.00,22.97,26.82,29.80,13.96,46.23,1016.15,2034.98,3207.03,2887.01,3303.55,600.39,596.14,50.58,0000 0000 0000 0000 000000
2017-07-29 04:16:08,0.00,0.74,0.00,23.00,26.85,29.82,13.84,46.15,1016.14,2034.91,3206.96,2887.00,3303.06,599.96,595.73,50.63,0000 0000 0000 0000 000000
2017-07-29 04:21:09,-0.03,0.73,0.00,23.02,26.87,29.85,13.86,46.11,1016.15,2034.52,3206.41,2886.80,3303.00,599.67,595.34,50.68,0000 0000 0000 0000 000000
2017-07-29 04:26:11,-0.00,0.73,0.00,23.02,26.90,29.86,13.98,46.23,1016.14,2034.12,3206.02,2886.17,3302.91,600.04,595.82,50.73,0000 0000 0000 0000 000000
2017-07-29 04:31:12,0.01,0.73,0.00,23.05,26.92,29.90,13.94,46.30,1016.14,2034.05,3205.99,2886.01,3302.26,599.94,595.60,50.79,0000 0000 0000 0000 000000
2017-07-29 04:36:14,0.01,0.73,0.00,23.08,26.95,29.93,13.90,46.30,1016.16,2034.06,3205.74,2886.00,3302.02,599.62,595.22,50.84,0000 0000 0000 0000 000000
2017-07-29 04:41:15,0.01,0.74,0.00,23.10,26.97,29.96,13.85,46.19,1016.16,2034.02,3205.05,2885.94,3302.00,599.67,595.37,50.89,0000 0000 0000 0000 000000
2017-07-29 04:46:16,0.04,0.74,0.00,23.12,27.00,29.99,13.96,46.32,1016.20,2034.00,3204.76,2885.20,3301.58,600.16,595.59,50.94,0000 0000 0000 0000 000000
2017-07-29 04:51:18,0.01,0.74,0.00,23.16,27.02,30.00,13.98,46.24,1016.15,2034.00,3204.13,2885.00,3301.02,600.02,595.53,50.99,0000 0000 0000 0000 000000
2017-07-29 04:56:19,0.00,0.74,0.00,23.17,27.04,30.04,13.92,45.97,1016.14,2034.00,3203.97,2884.98,3301.00,600.18,595.65,51.04,0000 0000 0000 0000 000000
2017-07-29 05:01:21,0.02,0.74,0.00,23.18,27.06,30.02,13.97,46.13,1016.14,2034.00,3203.76,2884.61,3300.77,599.95,595.33,51.09,0000 0000 0000 0000 000000
2017-07-29 05:06:21,0.02,0.74,0.00,23.21,27.09,30.06,13.87,46.12,1016.14,2033.99,3203.26,2884.07,3300.10,599.82,595.22,51.14,0000 0000 0000 0000 000000
2017-07-29 05:11:23,0.00,0.74,0.00,23.24,27.11,30.07,13.84,46.28,1016.15,2033.98,3203.01,2884.00,3300.00,600.40,595.86,51.19,0000 0000 0000 0000 000000
2017-07-29 05:16:24,-0.00,0.74,0.00,23.26,27.14,30.09,13.92,46.13,1016.17,2033.90,3202.85,2883.96,3299.88,599.93,595.18,51.24,0000 0000 0000 0000 000000
2017-07-29 05:21:25,0.02,0.74,0.00,23.28,27.16,30.12,13.87,46.02,1016.22,2033.71,3202.25,2883.52,3299.23,600.11,595.35,51.29,0000 0000 0000 0000 000000
2017-07-29 05:26:26,0.02,0.74,0.00,23.30,27.18,30.16,13.90,46.04,1016.21,2033.65,3201.99,2883.03,3299.00,599.88,595.08,51.34,0000 0000 0000 0000 000000
2017-07-29 05:31:27,-0.05,0.74,0.00,23.32,27.21,30.20,13.83,46.18,1016.14,2033.24,3201.80,2883.00,3298.97,599.96,595.08,51.39,0000 0000 0000 0000 000000
2017-07-29 05:36:29,0.02,0.74,0.00,23.34,27.22,30.21,13.88,46.09,1016.20,2033.12,3201.08,2882.97,3298.51,599.42,594.53,51.44,0000 0000 0000 0000 000000
2017-07-29 05:41:30,0.02,0.74,0.00,23.36,27.25,30.23,13.95,46.08,1016.19,2033.08,3201.00,2882.50,3298.04,600.33,595.31,51.49,0000 0000 0000 0000 000000
2017-07-29 05:46:32,0.00,0.74,0.00,23.39,27.27,30.25,13.95,46.09,1016.23,2033.03,3200.92,2882.05,3297.99,600.00,595.05,51.54,0000 0000 0000 0000 000000
2017-07-29 05:51:33,0.01,0.74,0.00,23.40,27.29,30.27,13.91,46.08,1016.38,2033.01,3200.37,2882.01,3297.96,599.82,594.86,51.59,0000 0000 0000 0000 000000
2017-07-29 05:56:34,0.01,0.74,0.00,23.41,27.31,30.30,13.90,45.96,1016.32,2033.00,3200.07,2881.99,3297.60,599.73,594.72,51.64,0000 0000 0000 0000 000000
2017-07-29 06:01:36,0.01,0.74,0.00,23.42,27.33,30.31,13.90,45.88,1016.16,2033.00,3199.99,2881.90,3297.03,600.18,595.10,51.69,0000 0000 0000 0000 000000
2017-07-29 06:06:37,0.03,0.75,0.00,23.45,27.35,30.33,13.81,45.83,1016.15,2033.00,3199.47,2881.27,3297.00,599.24,594.22,51.75,0000 0000 0000 0000 000000
2017-07-29 06:11:38,0.00,0.75,0.00,23.47,27.37,30.35,13.94,45.99,1016.15,2033.00,3199.01,2881.01,3296.84,599.89,594.71,51.80,0000 0000 0000 0000 000000
2017-07-29 06:16:40,0.01,0.75,0.00,23.47,27.39,30.38,13.88,46.13,1016.15,2032.99,3198.99,2881.00,3296.15,599.92,594.71,51.85,0000 0000 0000 0000 000000
2017-07-29 06:21:41,0.00,0.75,0.00,23.49,27.41,30.40,14.00,45.98,1016.14,2032.97,3198.85,2880.96,3296.00,600.36,595.10,51.90,0000 0000 0000 0000 000000
2017-07-29 06:26:42,0.03,0.75,0.00,23.51,27.43,30.42,13.94,45.90,1016.15,2032.95,3198.11,2880.33,3295.98,600.00,594.87,51.95,0000 0000 0000 0000 000000
2017-07-29 06:31:43,-0.01,0.75,0.00,23.52,27.45,30.46,13.92,46.12,1016.15,2032.80,3198.00,2880.02,3295.66,599.88,594.65,52.00,0000 0000 0000 0000 000000
2017-07-29 06:36:44,-0.03,0.75,0.00,23.54,27.47,30.46,13.79,45.92,1016.14,2032.43,3197.98,2880.00,3295.07,599.77,594.44,52.05,0000 0000 0000 0000 000000
2017-07-29 06:41:46,-0.02,0.75,0.00,23.56,27.50,30.46,13.97,46.23,1016.14,2032.07,3197.91,2879.99,3295.00,600.27,594.86,52.10,0000 0000 0000 0000 000000
2017-07-29 06:46:47,0.01,0.75,0.00,23.57,27.51,30.49,13.88,46.04,1016.13,2032.01,3197.30,2879.92,3294.95,600.03,594.61,52.15,0000 0000 0000 0000 000000
2017-07-29 06:51:48,0.03,0.75,0.00,23.59,27.53,30.51,13.94,46.19,1016.13,2032.00,3197.02,2879.38,3294.25,600.12,594.68,52.20,0000 0000 0000 0000 000000
2017-07-29 06:56:50,0.00,0.75,0.00,23.61,27.55,30.54,13.98,46.23,1016.13,2032.00,3197.00,2879.04,3294.01,600.13,594.83,52.25,0000 0000 0000 0000 000000
2017-07-29 07:01:51,0.00,0.75,0.00,23.63,27.57,30.57,13.88,46.24,1016.13,2031.99,3196.87,2879.00,3293.99,599.93,594.43,52.30,0000 0000 0000 0000 000000
2017-07-29 07:06:52,0.01,0.75,0.00,23.64,27.60,30.55,13.89,46.06,1016.13,2031.99,3196.23,2879.00,3293.80,599.94,594.35,52.35,0000 0000 0000 0000 000000
2017-07-29 07:11:53,0.01,0.75,0.00,23.65,27.61,30.59,13.96,46.22,1016.13,2031.99,3196.00,2878.93,3293.12,600.18,594.59,52.40,0000 0000 0000 0000 000000
2017-07-29 07:16:54,0.02,0.75,0.00,23.67,27.63,30.61,13.93,46.15,1016.13,2031.99,3195.94,2878.39,3293.00,599.76,594.17,52.45,0000 0000 0000 0000 000000
2017-07-29 07:21:56,0.01,0.75,0.00,23.67,27.66,30.64,13.91,46.12,1016.13,2031.95,3195.49,2878.01,3292.92,599.94,594.36,52.50,0000 0000 0000 0000 000000
2017-07-29 07:26:57,-0.01,0.75,0.00,23.68,27.67,30.66,13.85,46.06,1016.12,2031.72,3195.03,2878.00,3292.24,599.73,594.05,52.55,0000 0000 0000 0000 000000
2017-07-29 07:31:58,-0.02,0.75,0.00,23.70,27.70,30.67,13.98,46.25,1016.10,2031.32,3194.96,2877.92,3292.00,599.76,594.12,52.60,0000 0000 0000 0000 000000
2017-07-29 07:37:00,0.02,0.75,0.00,23.72,27.71,30.69,13.83,46.04,1016.05,2031.16,3194.56,2877.39,3291.98,599.63,593.90,52.66,0000 0000 0000 0000 000000
2017-07-29 07:42:01,0.02,0.75,0.00,23.75,27.73,30.70,13.93,46.16,1016.07,2031.13,3194.02,2877.02,3291.61,600.09,594.41,52.71,0000 0000 0000 0000 000000
2017-07-29 07:47:03,0.00,0.75,0.00,23.75,27.75,30.73,13.98,46.07,1015.92,2031.09,3193.87,2877.00,3291.06,600.02,594.25,52.76,0000 0000 0000 0000 000000
2017-07-29 07:52:04,0.01,0.75,0.00,23.77,27.77,30.76,13.98,46.18,1015.78,2031.02,3193.23,2876.87,3290.99,600.23,594.27,52.81,0000 0000 0000 0000 000000
2017-07-29 07:57:05,0.03,0.76,0.00,23.78,27.80,30.75,13.86,45.99,1015.86,2031.01,3193.00,2876.15,3290.58,599.69,593.77,52.86,0000 0000 0000 0000 000000
2017-07-29 08:02:07,0.00,0.76,0.00,23.80,27.81,30.77,13.99,46.20,1015.89,2031.00,3192.93,2876.01,3290.04,600.25,594.26,52.91,0000 0000 0000 0000 000000
2017-07-29 08:07:08,0.01,0.76,0.00,23.82,27.83,30.80,13.86,46.09,1015.94,2030.99,3192.30,2876.00,3289.99,600.01,594.05,52.96,0000 0000 0000 0000 000000
2017-07-29 08:12:09,0.00,0.76,0.00,23.84,27.85,30.82,13.96,46.06,1016.03,2030.99,3192.01,2875.94,3289.89,600.01,594.01,53.01,0000 0000 0000 0000 000000
2017-07-29 08:17:10,0.03,0.76,0.00,23.86,27.87,30.85,13.91,46.03,1016.06,2030.97,3191.98,2875.28,3289.20,599.93,593.93,53.06,0000 0000 0000 0000 000000
2017-07-29 08:22:11,0.00,0.76,0.00,23.87,27.89,30.86,13.90,46.10,1016.01,2030.94,3191.85,2875.01,3289.01,599.94,593.87,53.11,0000 0000 0000 0000 000000
2017-07-29 08:27:12,0.00,0.76,0.00,23.88,27.90,30.86,13.90,46.01,1015.93,2030.82,3191.28,2875.00,3288.99,599.99,593.83,53.16,0000 0000 0000 0000 000000
2017-07-29 08:32:13,-0.03,0.76,0.00,23.89,27.92,30.89,13.88,45.96,1015.90,2030.45,3190.97,2874.95,3288.60,599.97,593.82,53.21,0000 0000 0000 0000 000000
2017-07-29 08:37:14,0.03,0.76,0.00,23.91,27.94,30.92,13.86,46.08,1015.89,2030.28,3190.48,2874.45,3288.05,599.85,593.60,53.26,0000 0000 0000 0000 000000
2017-07-29 08:42:15,-0.00,0.76,0.00,23.92,27.96,30.91,13.84,45.97,1015.94,2030.22,3190.06,2874.05,3288.00,599.86,593.68,53.31,0000 0000 0000 0000 000000
2017-07-29 08:47:16,-0.01,0.76,0.00,23.93,27.97,30.95,13.82,45.84,1015.77,2030.12,3190.00,2874.00,3287.99,599.65,593.31,53.36,0000 0000 0000 0000 000000
2017-07-29 08:52:18,0.01,0.76,0.00,23.95,27.99,30.97,13.89,45.87,1015.70,2030.08,3189.88,2874.00,3287.69,600.22,593.79,53.41,0000 0000 0000 0000 000000
2017-07-29 08:57:19,0.02,0.76,0.00,23.97,28.01,30.96,13.90,45.90,1015.65,2030.02,3189.19,2873.80,3287.08,600.16,593.71,53.46,0000 0000 0000 0000 000000
2017-07-29 09:02:21,0.02,0.76,0.00,23.98,28.02,30.96,13.99,45.92,1015.64,2030.01,3188.99,2873.07,3287.00,600.27,593.62,53.51,0000 0000 0000 0000 000000
2017-07-29 09:07:22,0.01,0.76,0.00,24.00,28.05,30.99,13.91,45.96,1015.64,2030.01,3188.86,2873.01,3286.88,600.22,593.65,53.57,0000 0000 0000 0000 000000
2017-07-29 09:12:23,0.02,0.76,0.00,24.02,28.06,31.03,13.89,45.92,1015.64,2030.00,3188.12,2872.99,3286.14,599.91,593.31,53.62,0000 0000 0000 0000 000000
2017-07-29 09:17:24,0.00,0.76,0.00,24.03,28.07,31.03,13.84,45.98,1015.64,2030.00,3187.99,2872.85,3286.00,599.68,593.05,53.67,0000 0000 0000 0000 000000
2017-07-29 09:22:26,0.01,0.76,0.00,24.05,28.10,31.04,13.94,46.01,1015.64,2030.00,3187.97,2872.28,3285.97,600.51,593.75,53.72,0000 0000 0000 0000 000000
2017-07-29 09:27:27,0.01,0.76,0.00,24.07,28.11,31.07,13.84,45.93,1015.62,2029.98,3187.60,2872.02,3285.67,599.90,593.29,53.77,0000 0000 0000 0000 000000
2017-07-29 09:32:28,0.01,0.77,0.00,24.07,28.12,31.09,13.82,45.92,1015.58,2029.99,3187.06,2872.00,3285.09,599.87,593.17,53.82,0000 0000 0000 0000 000000
2017-07-29 09:37:29,0.20,0.77,0.00,24.10,28.15,31.09,13.87,46.06,1015.36,2029.97,3184.04,2870.14,3283.13,600.16,593.23,53.87,0000 0000 0000 0000 000000
2017-07-29 09:42:31,0.01,0.78,0.00,24.12,28.16,31.10,13.92,45.98,1015.30,2029.72,3182.03,2868.78,3281.46,599.99,593.07,53.92,0000 0000 0000 0000 000000
2017-07-29 09:47:32,-0.01,0.78,0.00,24.12,28.17,31.13,13.86,45.96,1015.29,2029.37,3181.83,2868.08,3281.03,599.93,592.84,53.97,0000 0000 0000 0000 000000
2017-07-29 09:52:33,-0.01,0.78,0.00,24.14,28.19,31.14,13.84,46.04,1015.27,2029.07,3181.31,2868.00,3280.99,600.13,593.19,54.02,0000 0000 0000 0000 000000
2017-07-29 09:57:34,0.01,0.78,0.00,24.16,28.21,31.16,13.86,45.95,1015.17,2029.03,3181.03,2868.00,3280.76,600.12,592.97,54.07,0000 0000 0000 0000 000000
2017-07-29 10:02:35,0.02,0.78,0.00,24.19,28.22,31.17,13.85,45.96,1015.16,2029.02,3180.99,2867.79,3280.10,599.66,592.49,54.12,0000 0000 0000 0000 000000
2017-07-29 10:07:36,0.01,0.78,0.00,24.23,28.24,31.20,13.84,45.77,1015.15,2029.00,3180.86,2867.19,3280.00,600.06,592.75,54.17,0000 0000 0000 0000 000000
2017-07-29 10:12:37,0.01,0.78,0.00,24.25,28.26,31.21,13.87,45.79,1015.15,2029.00,3180.25,2867.02,3279.97,599.95,592.60,54.22,0000 0000 0000 0000 000000
2017-07-29 10:17:39,0.01,0.78,0.00,24.28,28.28,31.19,13.87,45.94,1015.12,2029.00,3180.00,2866.99,3279.39,599.90,592.50,54.27,0000 0000 0000 0000 000000
2017-07-29 10:22:40,0.00,0.78,0.00,24.32,28.30,31.20,13.93,45.93,1015.05,2028.99,3179.98,2866.97,3279.03,600.36,592.77,54.32,0000 0000 0000 0000 000000
2017-07-29 10:27:41,0.03,0.78,0.00,24.36,28.32,31.21,13.83,45.90,1015.00,2028.99,3179.51,2866.46,3279.00,600.14,592.45,54.37,0000 0000 0000 0000 000000
2017-07-29 10:32:43,0.00,0.78,0.00,24.38,28.35,31.23,13.84,46.08,1014.84,2028.98,3179.01,2866.04,3278.90,599.84,592.29,54.42,0000 0000 0000 0000 000000
2017-07-29 10:37:44,-0.03,0.78,0.00,24.39,28.37,31.27,13.88,46.08,1014.70,2028.66,3179.00,2866.00,3278.12,599.64,591.78,54.47,0000 0000 0000 0000 000000
2017-07-29 10:42:45,-0.03,0.78,0.00,24.40,28.39,31.33,13.81,45.92,1014.68,2028.16,3178.98,2865.98,3278.00,600.00,592.10,54.52,0000 0000 0000 0000 000000
2017-07-29 10:47:46,0.01,0.78,0.00,24.41,28.41,31.34,13.87,46.03,1014.68,2028.03,3178.71,2865.73,3277.93,600.13,592.16,54.58,0000 0000 0000 0000 000000
2017-07-29 10:52:48,0.03,0.78,0.00,24.42,28.43,31.38,13.84,46.05,1014.67,2028.00,3178.01,2865.05,3277.13,600.08,592.10,54.63,0000 0000 0000 0000 000000
2017-07-29 10:57:49,0.03,0.78,0.00,24.42,28.45,31.44,13.82,46.01,1014.66,2028.00,3177.26,2864.82,3276.76,599.96,592.01,54.68,0000 0000 0000 0000 000000
2017-07-29 11:02:50,0.04,0.78,0.00,24.42,28.47,31.46,13.88,46.00,1014.67,2028.00,3176.34,2864.05,3275.98,600.01,592.08,54.73,0000 0000 0000 0000 000000
2017-07-29 11:07:51,0.06,0.79,0.00,24.42,28.50,31.47,13.88,46.06,1014.67,2027.99,3174.99,2863.26,3275.08,600.22,592.18,54.78,0000 0000 0000 0000 000000
2017-07-29 11:12:53,0.04,0.79,0.00,24.43,28.51,31.50,13.85,46.11,1014.66,2027.96,3173.93,2862.70,3274.18,600.07,592.18,54.83,0000 0000 0000 0000 000000
2017-07-29 11:17:54,0.02,0.79,0.00,24.43,28.53,31.50,13.85,46.05,1014.66,2027.94,3173.11,2862.04,3273.91,599.85,591.94,54.88,0000 0000 0000 0000 000000
2017-07-29 11:22:55,0.03,0.79,0.00,24.45,28.55,31.52,13.83,46.06,1014.66,2027.95,3172.42,2861.87,3273.17,600.00,592.12,54.93,0000 0000 0000 0000 000000
2017-07-29 11:27:57,0.01,0.79,0.00,24.47,28.57,31.52,13.84,46.13,1014.66,2027.81,3171.94,2861.09,3272.83,600.05,592.03,54.98,0000 0000 0000 0000 000000
2017-07-29 11:32:58,-0.00,0.80,0.00,24.49,28.59,31.52,13.84,45.98,1014.56,2027.58,3171.19,2860.97,3272.10,600.16,592.03,55.03,0000 0000 0000 0000 000000
2017-07-29 11:37:59,-0.00,0.79,0.00,24.52,28.60,31.54,13.80,45.92,1014.46,2027.11,3170.87,2860.34,3271.86,599.83,591.63,55.08,0000 0000 0000 0000 000000
2017-07-29 11:43:00,0.02,0.80,0.00,24.55,28.62,31.56,13.83,45.98,1014.33,2027.03,3170.07,2860.01,3271.08,599.91,591.49,55.13,0000 0000 0000 0000 000000
2017-07-29 11:48:02,0.02,0.80,0.00,24.57,28.64,31.56,13.90,46.08,1014.24,2027.02,3169.67,2859.78,3270.80,600.25,591.73,55.18,0000 0000 0000 0000 000000
2017-07-29 11:53:03,0.03,0.80,0.00,24.60,28.66,31.59,13.82,46.17,1014.20,2027.00,3169.04,2859.09,3270.09,600.15,591.65,55.23,0000 0000 0000 0000 000000
2017-07-29 11:58:05,0.00,0.80,0.00,24.64,28.67,31.60,13.80,46.05,1014.19,2027.00,3168.96,2859.00,3270.00,599.74,591.07,55.28,0000 0000 0000 0000 000000
2017-07-29 12:03:06,0.03,0.80,0.00,24.65,28.69,31.62,13.86,46.20,1014.18,2026.99,3168.33,2858.82,3269.51,600.31,591.48,55.33,0000 0000 0000 0000 000000
2017-07-29 12:08:07,0.01,0.80,0.00,24.66,28.70,31.64,13.80,46.31,1014.18,2026.98,3168.00,2858.21,3269.02,599.52,591.01,55.38,0000 0000 0000 0000 000000
2017-07-29 12:13:09,0.01,0.80,0.00,24.65,28.72,31.67,13.87,46.27,1014.18,2026.96,3167.71,2858.00,3268.92,600.25,591.56,55.43,0000 0000 0000 0000 000000
2017-07-29 12:18:10,0.03,0.80,0.00,24.65,28.73,31.65,13.83,46.31,1014.18,2026.94,3167.04,2857.70,3268.18,600.05,591.36,55.49,0000 0000 0000 0000 000000
2017-07-29 12:23:11,0.01,0.80,0.00,24.64,28.75,31.68,13.84,46.23,1014.17,2026.91,3166.78,2857.08,3267.98,600.25,591.59,55.54,0000 0000 0000 0000 000000
2017-07-29 12:28:13,0.00,0.80,0.00,24.63,28.76,31.70,13.81,46.16,1014.15,2026.65,3166.04,2856.96,3267.26,600.02,591.38,55.59,0000 0000 0000 0000 000000
2017-07-29 12:33:14,0.03,0.81,0.00,24.62,28.77,31.70,13.84,46.17,1014.13,2026.52,3165.56,2856.37,3266.93,599.39,590.75,55.64,0000 0000 0000 0000 000000
2017-07-29 12:38:15,-0.00,0.81,0.00,24.62,28.78,31.71,13.79,46.02,1014.04,2026.28,3165.01,2856.00,3266.11,599.79,591.09,55.69,0000 0000 0000 0000 000000
2017-07-29 12:43:16,0.01,0.81,0.00,24.62,28.80,31.73,13.88,46.25,1013.90,2026.14,3164.55,2855.75,3265.92,600.04,591.25,55.74,0000 0000 0000 0000 000000
2017-07-29 12:48:17,0.03,0.81,0.00,24.62,28.80,31.74,13.78,46.21,1013.80,2026.06,3164.02,2855.08,3265.16,599.94,591.09,55.79,0000 0000 0000 0000 000000
2017-07-29 12:53:19,0.02,0.81,0.00,24.62,28.81,31.74,13.81,46.15,1013.74,2026.01,3163.52,2854.95,3264.92,599.60,590.72,55.84,0000 0000 0000 0000 000000